This demonstration page uses our WeatherBlox Daily Observations layout. Learn more.

Left ArrowRight Arrow

39.29038, -76.61219

Hourly Observations for June 9, 2020

Temp ( °F °C ) Dew Point ( °F °C ) Humidity (%) Winds ( mph kmh ) Pressure ( in mb ) Visibility ( mi km ) Precip ( " mm )
12:54 am 00:54 Clear 63 17.2 56 13.3 78 78 Calm 30.01 1016 10 16 0.00 0.00
1:54 am 01:54 Mostly Clear 61 16.1 55 12.8 81 81 Calm 30.00 1016 10 16 0.00 0.00
2:54 am 02:54 Partly Cloudy 59 15 55 12.8 87 87 W 3 6 30.00 1016 10 16 0.00 0.00
3:54 am 03:54 Clear 60 15.6 55 12.8 84 84 Calm 29.99 1016 10 16 0.00 0.00
4:54 am 04:54 Partly Cloudy 60 15.6 55 12.8 84 84 Calm 29.98 1015 10 16 0.00 0.00
5:54 am 05:54 Mostly Cloudy 58 14.4 55 12.8 90 90 Calm 29.99 1016 10 16 0.00 0.00
6:54 am 06:54 Mostly Cloudy 64 17.8 57 13.9 78 78 Calm 29.98 1015 10 16 0.00 0.00
7:54 am 07:54 Mostly Cloudy 70 21.1 58 14.4 66 66 Calm 30.00 1016 10 16 0.00 0.00
8:54 am 08:54 Mostly Cloudy 75 23.9 61 16.1 62 62 SSW 5 7 30.00 1016 10 16 0.00 0.00
9:54 am 09:54 Mostly Cloudy 80 26.7 61 16.1 52 52 VRB 5 7 29.99 1016 10 16 0.00 0.00
10:54 am 10:54 Mostly Cloudy 83 28.3 61 16.1 48 48 VRB 6 9 29.98 1015 10 16 0.00 0.00
11:54 am 11:54 Mostly Cloudy 85 29.4 62 16.7 46 46 undefined N/A 29.97 1015 10 16 0.00 0.00
12:54 pm 12:54 Mostly Cloudy 87 30.6 64 17.8 46 46 VRB 7 11 29.95 1014 10 16 0.00 0.00
1:54 pm 13:54 Mostly Cloudy 89 31.7 66 18.9 47 47 VRB 3 6 29.93 1014 10 16 0.00 0.00
2:54 pm 14:54 Mostly Cloudy 90 32.2 67 19.4 47 47 SSW 7 11 29.92 1013 10 16 0.00 0.00
3:54 pm 15:54 Mostly Cloudy 89 31.7 68 20 50 50 SSE 6 9 29.91 1013 10 16 0.00 0.00
4:54 pm 16:54 Partly Cloudy 89 31.7 69 20.6 52 52 SSE 12 19 29.90 1013 10 16 0.00 0.00
5:54 pm 17:54 Partly Cloudy 88 31.1 69 20.6 54 54 SSE 12 19 29.89 1012 10 16 0.00 0.00
6:54 pm 18:54 Partly Cloudy 86 30 69 20.6 57 57 SSE 7 11 29.89 1012 10 16 0.00 0.00
7:54 pm 19:54 Partly Cloudy 83 28.3 70 21.1 65 65 SSE 7 11 29.90 1012 10 16 0.00 0.00
8:54 pm 20:54 Partly Cloudy 81 27.2 70 21.1 69 69 SSE 3 6 29.91 1013 10 16 0.00 0.00
9:54 pm 21:54 Mostly Clear 79 26.1 70 21.1 74 74 SSE 3 6 29.91 1013 10 16 0.00 0.00
10:54 pm 22:54 Mostly Clear 78 25.6 70 21.1 76 76 Calm 29.93 1014 10 16 0.00 0.00
11:54 pm 23:54 Partly Cloudy 77 25 70 21.1 79 79 S 3 6 29.94 1014 10 16 0.00 0.00

Powered by AerisWeather